This demonstration page uses our WeatherBlox Daily Observations layout. Learn more.

Left ArrowRight Arrow

38.83388, -104.82136

Hourly Observations for March 19, 2021

Temp ( °F °C ) Dew Point ( °F °C ) Humidity (%) Winds ( mph kmh ) Pressure ( in mb ) Visibility ( mi km ) Precip ( " mm )
12:58 am 00:58 Mostly Cloudy 35 1.4 16 -8.8 47 47 S 18 30 29.97 1015 10 16 0.00 0.00
1:58 am 01:58 Mostly Cloudy 28 -2 21 -6 74 74 SSE 9 15 29.98 1015 10 16 0.00 0.00
2:58 am 02:58 Mostly Cloudy 27 -2.8 23 -5.1 84 84 SE 3 6 29.99 1016 10 16 0.00 0.00
3:58 am 03:58 Mostly Cloudy 26 -3.2 23 -4.9 88 88 NNW 5 7 29.97 1015 10 16 0.00 0.00
4:58 am 04:58 Partly Cloudy 26 -3.4 23 -5.2 88 88 Calm 29.95 1014 10 16 0.00 0.00
5:58 am 05:58 Partly Cloudy 28 -2.1 21 -6.3 73 73 NW 3 6 29.94 1014 10 16 0.00 0.00
6:58 am 06:58 Clear 28 -2.2 21 -6.3 74 74 Calm 29.95 1014 10 16 0.00 0.00
7:58 am 07:58 Sunny 30 -0.9 22 -5.5 71 71 Calm 29.96 1015 10 16 0.00 0.00
8:58 am 08:58 Sunny 37 2.6 24 -4.2 61 61 Calm 29.95 1014 10 16 0.00 0.00
9:58 am 09:58 Sunny 41 5 26 -3.2 56 56 Calm 29.93 1014 10 16 0.00 0.00
10:58 am 10:58 Sunny 46 7.9 28 -2.2 49 49 SE 5 7 29.91 1013 10 16 0.00 0.00
11:58 am 11:58 Sunny 49 9.2 26 -3.5 41 41 SE 9 15 29.90 1012 10 16 0.00 0.00
12:58 pm 12:58 Sunny 51 10.5 21 -5.9 31 31 SE 10 17 29.85 1011 10 16 0.00 0.00
1:58 pm 13:58 Sunny 51 10.8 21 -6.2 30 30 SE 12 19 29.88 1012 10 16 0.00 0.00
2:58 pm 14:58 Sunny 52 11.2 20 -6.4 29 29 SE 12 19 29.86 1011 10 16 0.00 0.00
3:56 pm 15:56 Mostly Sunny 53 11.6 21 -5.9 29 29 SE 9 15 29.86 1011 10 16 0.00 0.00
4:58 pm 16:58 Mostly Sunny 51 10.6 21 -6.2 30 30 SSE 14 22 29.85 1011 10 16 0.00 0.00
5:58 pm 17:58 Sunny 50 10 22 -5.8 33 33 SSE 10 17 29.85 1011 10 16 0.00 0.00
6:58 pm 18:58 Sunny 49 9.4 21 -5.9 34 34 S 14 22 29.88 1012 10 16 0.00 0.00
7:58 pm 19:58 Clear 47 8.2 22 -5.7 37 37 S 13 20 29.87 1012 10 16 0.00 0.00
8:58 pm 20:58 Clear 45 7.4 22 -5.6 40 40 SSE 9 15 29.85 1011 10 16 0.00 0.00
9:58 pm 21:58 Clear 44 6.9 22 -5.5 41 41 S 9 15 29.85 1011 10 16 0.00 0.00
10:58 pm 22:58 Clear 44 6.5 23 -5.1 44 44 SSW 12 19 29.80 1009 10 16 0.00 0.00
11:58 pm 23:58 Clear 44 6.5 23 -5 44 44 S 10 17 29.78 1008 10 16 0.00 0.00

Powered by AerisWeather